Regional Weather Roundup
Issued by NWS Sterling, VA

Home | Current Version | Previous Version | Text Only | Print | Product List | Glossary On
Versions: 1 2 3 4 5 6 7 8 9 10 11 12 13 14 15 16 17 18 19 20 21 22 23 24 25 26 27 28 29 30 31 32 33 34 35 36 37 38 39 40 41 42 43 44
000
ASUS41 KLWX 271010
RWRLWX

REGIONAL WEATHER ROUNDUP
NATIONAL WEATHER SERVICE BALTIMORE MD/WASHINGTON DC
500 AM EST SAT DEC 27 2014

Note: "FAIR" indicates few or no clouds below 12,000 feet
with no significant weather and/or obstructions to visibility.
 TC=TEMPERATURE CELSIUS

 * =Non NWS site. Station does not report precipitation (e.g. rain,
    snow, etc.), thunder, or fog.

DCZ001-MDZ009-015-VAZ040>042-051-053>054-271100-
WASHINGTON METRO

CITY           SKY/WX    TMP DP  RH WIND       PRES   REMARKS
WASHINGTON NAT PTCLDY    36  31  82 S6        30.27R
DULLES         CLOUDY    29  28  96 CALM      30.25S
ANDREWS AFB    MOCLDY    35  32  90 S6        30.25R
FT BELVOIR     MOCLDY    30  28  94 CALM      30.27R
QUANTICO       MOCLDY    33  30  88 NW5       30.28R
COLLEGE PARK*  PTCLDY    32  32 100 CALM      30.26R
LEESBURG*      PTCLDY    32  32 100 CALM      30.26R
MANASSAS*      CLOUDY    30  30 100 CALM      30.26F
GAITHERSBURG*  PTCLDY    34  30  86 CALM      30.28S

$$

MDZ006>007-011-014-271100-
BALTIMORE METRO

CITY           SKY/WX    TMP DP  RH WIND       PRES   REMARKS
BWI AIRPORT    MOCLDY    32  29  88 CALM      30.25R
MD SCIENCE CTR   N/A     38  32  79 MISG      30.26R
MARTIN STATE   MOCLDY    32  32 100 CALM      30.27R
ANNAPOLIS      MOCLDY    36  33  89 CALM      30.26R
FORT MEADE*    MOCLDY    30  28  93 CALM      30.28S

$$

MDZ012-015-019>023-271100-
MARYLAND EASTERN SHORE

CITY           SKY/WX    TMP DP  RH WIND       PRES   REMARKS
OCEAN CITY     CLEAR     40  37  89 W7        30.27R
SALISBURY      CLEAR     37  34  87 CALM      30.27R FOG
BAY BRIDGE AP*   N/A     36  36 100 CALM      30.27R
CAMBRIDGE*       N/A     34  32  93 CALM      30.26R VSB 3/4
EASTON*        PTCLDY    34  34 100 CALM      30.30R

$$

MDZ017>025-271100-
SOUTHERN MARYLAND

CITY           SKY/WX    TMP DP  RH WIND       PRES   REMARKS
PATUXENT RIVER PTCLDY    38  32  79 SW5       30.26R
ST INIGOES     PTCLDY    36  30  79 SW3       30.26R
LEONARDTOWN*   PTCLDY    37  34  87 CALM      30.28R

$$

MDZ003>005-271100-
NORTH CENTRAL MARYLAND

CITY           SKY/WX    TMP DP  RH WIND       PRES   REMARKS
FREDERICK*     PTCLDY    32  28  86 CALM      30.27F
HAGERSTOWN APT CLOUDY    35  28  75 E3        30.23S
WESTMINSTER*   PTCLDY    36  30  80 CALM      30.23S

$$

MDZ501>502-271100-
WESTERN MARYLAND

CITY           SKY/WX    TMP DP  RH WIND       PRES   REMARKS
OAKLAND*       CLOUDY    37   9  30 SW7       30.19S
CUMBERLAND*    CLOUDY    32  32 100 NE5       30.28R

$$

VAZ025>031-271100-
SHENANDOAH VALLEY

CITY           SKY/WX    TMP DP  RH WIND       PRES   REMARKS
WINCHESTER*    CLOUDY    36  28  75 CALM      30.24R
FRONT ROYAL*   FAIR      39  28  65 S3        30.21F
LURAY*         FAIR      36  32  87 SW5       30.25S
NEW MARKET*    FAIR      33  30  90 CALM      30.25S
STAUNTON*      CLOUDY    32  28  85 CALM      30.26S
WAYNESBORO*    FAIR      35  27  73 CALM      30.25R

$$

WVZ021-048>050-054>055-271100-
EASTERN WEST VIRGINIA PANHANDLE

CITY           SKY/WX    TMP DP  RH WIND       PRES   REMARKS
MARTINSBURG    MOCLDY    30  25  81 CALM      30.25S
PETERSBURG*    MOCLDY    32  32 100 CALM      30.25F

$$

VAZ036>039-050-271100-
CENTRAL FOOTHILLS

CITY           SKY/WX    TMP DP  RH WIND       PRES   REMARKS
CHARLOTTESVILL MOCLDY    33  30  88 CALM      30.24S
CULPEPER*      CLOUDY    30  30 100 CALM      30.26S
ORANGE*        CLOUDY    32  32 100 CALM      30.26F
GORDONSVILLE*  FAIR      31  29  95 CALM      30.24S
WARRENTON*     FAIR      31  31 100 CALM      30.25S

$$

VAZ055>057-271100-
NORTH AND CENTRAL PIEDMONT

CITY           SKY/WX    TMP DP  RH WIND       PRES   REMARKS
FREDERICKSBRG* MOCLDY    32  32 100 CALM      30.26S
STAFFORD*      MOCLDY    29  29 100 CALM      30.31R

$$

NCZ024-NYZ072-PAZ021-071-VAZ022-071-271100-
OTHER REGIONAL OBSERVATIONS

CITY           SKY/WX    TMP DP  RH WIND       PRES   REMARKS
NEW YORK CITY  MOCLDY    45  29  53 VRB3      30.22S
PHILADELPHIA   MOCLDY    34  31  88 CALM      30.25S
PITTSBURGH     PTCLDY    34  29  82 CALM      30.20S
ROANOKE        PTCLDY    37  26  64 VRB3      30.26F
RICHMOND       PTCLDY    35  30  82 CALM      30.27R
RALEIGH        PTCLDY    33  30  88 CALM      30.29R

$$

ANZ530>537-271100-
MARINE OBSERVATIONS

STATION/POSITION TIME  TEMP    WIND        PRES
                       AIR SEA DIR/SP/G
                 (UTC) (F)     (DEG/KT/KT) (MB)
THOMAS PT LIGHT  1000   39 42  340/  4/  4 1026.1R
BALT KEY BRIDGE  1000   37     230/  2/  3 1024.6R
COVE POINT       1000   43     160/  3/  3 1024.6R
LEWISETTA        1000   40 44     CALM     1024.4F
SOLOMONS ISLAND  1000      43                N/A
PINEY POINT      1000          250/  2/  2   N/A

$$



USA.gov is the U.S. government's official web portal to all federal, state and local government web resources and services.